Regional Weather Roundup
Issued by NWS

Home | Current Version | Previous Version | Text Only | Print | Product List | Glossary On
Versions: 1 2 3 4 5 6 7 8 9 10 11 12 13 14 15 16 17 18 19 20 21 22 23 24 25 26 27 28 29 30 31 32 33 34 35 36 37 38 39 40 41 42 43 44 45 46 47 48 49 50
000
ASUS44 KOUN 011700
RWROK

WEATHER ROUNDUP FOR OKLAHOMA
NATIONAL WEATHER SERVICE NORMAN OK
1200 PM CDT WED OCT 01 2014

NOTE: "FAIR" INDICATES FEW OR NO CLOUDS BELOW 12,000 FEET WITH NO
      SIGNIFICANT WEATHER AND/OR OBSTRUCTIONS TO VISIBILITY.

OKZ001>007-009>012-014-015-017-011800-
NORTHWEST OKLAHOMA AND THE PANHANDLE

CITY           SKY/WX    TMP DP  RH WIND       PRES   REMARKS
GAGE           SUNNY     76  46  34 VRB6      29.76S
$$

OKZ016-021>023-033>039-044-045-011800-
SOUTHWEST OKLAHOMA

CITY           SKY/WX    TMP DP  RH WIND       PRES   REMARKS
LAWTON/REGL    SUNNY     86  64  47 S14       29.76F
FREDERICK      SUNNY     87  64  46 SW22      29.73F
CLINTON        SUNNY     84  59  42 SW17      29.78R
HOBART         SUNNY     87  61  41 SW16      29.76R
$$

OKZ018>020-024>031-011800-
CENTRAL OKLAHOMA

CITY           SKY/WX    TMP DP  RH WIND       PRES   REMARKS
OKLAHOMA CITY  MOSUNNY   86  65  49 S21       29.75F
OKC/WILEY POST MOSUNNY   87  65  47 S15G30    29.74F
STILLWATER     MOSUNNY   89  66  46 S21       29.73S HX  91
GUTHRIE        MOSUNNY   86  65  49 S15G26    29.73S
$$

OKZ008-013-054>072-011800-
NORTHEAST OKLAHOMA

CITY           SKY/WX    TMP DP  RH WIND       PRES   REMARKS
TULSA          MOSUNNY   86  68  54 S21       29.75F
TULSA/JONES    SUNNY     87  69  54 S14G22    29.76F HX  91
PONCA CITY     MOSUNNY   84  66  54 S8G17     29.72F
BARTLESVILLE   SUNNY     83  70  64 S10G20    29.76F
MUSKOGEE       MOSUNNY   84  69  60 S15G23    29.82F
$$

OKZ032-040>043-046>053-073>077-011800-
SOUTH CENTRAL/SOUTHEAST OKLAHOMA

CITY           SKY/WX    TMP DP  RH WIND       PRES   REMARKS
MCALESTER      MOSUNNY   85  68  56 SW13G22   29.83S
$$



USA.gov is the U.S. government's official web portal to all federal, state and local government web resources and services.